Data No.,UTC Date,UTC Time,Latitude,Longitude,Course(deg),Temp(degC),Sal(psu)
21,2015/7/18,0:03:00,02-27.6100N,119-20.1700E,7,29.461,34.2038
22,2015/7/18,0:04:00,02-27.8200N,119-20.2000E,7,29.456,34.2285
23,2015/7/18,0:05:00,02-28.0400N,119-20.2300E,7,29.467,34.2523
24,2015/7/18,0:06:00,02-28.2500N,119-20.2600E,7,29.458,34.2489
25,2015/7/18,0:07:00,02-28.4700N,119-20.2800E,6,29.468,34.1938
26,2015/7/18,0:08:00,02-28.6900N,119-20.3100E,6,29.49,34.1838
27,2015/7/18,0:09:00,02-28.9000N,119-20.3400E,6,29.49,34.208
28,2015/7/18,0:10:00,02-29.1300N,119-20.3600E,6,29.486,34.2374
29,2015/7/18,0:11:00,02-29.3400N,119-20.3900E,7,29.484,34.2503
30,2015/7/18,0:12:00,02-29.5600N,119-20.4200E,7,29.481,34.2501
31,2015/7/18,0:13:00,02-29.7700N,119-20.4400E,6,29.385,34.2388
32,2015/7/18,0:14:00,02-30.0100N,119-20.4700E,6,29.399,34.1195
33,2015/7/18,0:15:00,02-30.2200N,119-20.4900E,6,29.381,34.11
34,2015/7/18,0:16:00,02-30.4500N,119-20.5200E,6,29.354,34.1238
35,2015/7/18,0:17:00,02-30.6600N,119-20.5400E,6,29.371,34.097
36,2015/7/18,0:18:00,02-30.8700N,119-20.5700E,6,29.379,34.1054
37,2015/7/18,0:19:00,02-31.1000N,119-20.6000E,6,29.323,34.1441
38,2015/7/18,0:20:00,02-31.3100N,119-20.6300E,7,29.304,34.1294
39,2015/7/18,0:21:00,02-31.5300N,119-20.6500E,7,29.275,34.0957
40,2015/7/18,0:22:00,02-31.7400N,119-20.6800E,6,29.264,34.1077
41,2015/7/18,0:23:00,02-31.9600N,119-20.7100E,6,29.265,34.0672
42,2015/7/18,0:24:00,02-32.1700N,119-20.7400E,7,29.263,34.0613
43,2015/7/18,0:25:00,02-32.3900N,119-20.7600E,7,29.27,34.0493
44,2015/7/18,0:26:00,02-32.6100N,119-20.7900E,7,29.261,34.0526
45,2015/7/18,0:27:00,02-32.8200N,119-20.8200E,7,29.259,34.0394
46,2015/7/18,0:28:00,02-33.0300N,119-20.8500E,7,29.245,34.0235
47,2015/7/18,0:29:00,02-33.2500N,119-20.8800E,7,29.222,34.009
48,2015/7/18,0:30:00,02-33.4600N,119-20.9000E,6,29.216,34.0317
49,2015/7/18,0:31:00,02-33.6800N,119-20.9300E,7,29.206,34.0194
50,2015/7/18,0:32:00,02-33.8800N,119-20.9600E,8,29.206,34.0525
51,2015/7/18,0:33:00,02-34.1000N,119-20.9900E,8,29.195,34.0893
52,2015/7/18,0:34:00,02-34.3000N,119-21.0200E,7,29.206,34.0554
53,2015/7/18,0:35:00,02-34.5200N,119-21.0500E,6,29.204,34.031
54,2015/7/18,0:36:00,02-34.7200N,119-21.0700E,7,29.253,33.9915
55,2015/7/18,0:37:00,02-34.9200N,119-21.1000E,6,29.272,33.9787
56,2015/7/18,0:38:00,02-35.1300N,119-21.1200E,6,29.258,33.957
57,2015/7/18,0:39:00,02-35.3300N,119-21.1400E,6,29.191,33.9506
58,2015/7/18,0:40:00,02-35.5300N,119-21.1600E,6,29.165,33.9572
59,2015/7/18,0:41:00,02-35.7300N,119-21.1900E,6,29.195,33.977
60,2015/7/18,0:42:00,02-35.9400N,119-21.2100E,6,29.197,33.9674
61,2015/7/18,0:43:00,02-36.1400N,119-21.2300E,6,29.182,33.9559
62,2015/7/18,0:44:00,02-36.3500N,119-21.2500E,6,29.196,33.9633
63,2015/7/18,0:45:00,02-36.5500N,119-21.2800E,6,29.238,33.9588
64,2015/7/18,0:46:00,02-36.7600N,119-21.3100E,7,29.288,33.9522
65,2015/7/18,0:47:00,02-36.9700N,119-21.3400E,7,29.306,33.9383
66,2015/7/18,0:48:00,02-37.1800N,119-21.3600E,7,29.296,33.9349
67,2015/7/18,0:49:00,02-37.3900N,119-21.3900E,7,29.334,33.9338
68,2015/7/18,0:50:00,02-37.5900N,119-21.4200E,7,29.374,33.9323
69,2015/7/18,0:51:00,02-37.8000N,119-21.4400E,6,29.364,33.9351
70,2015/7/18,0:52:00,02-38.0100N,119-21.4700E,6,29.356,33.9311
71,2015/7/18,0:53:00,02-38.2200N,119-21.4900E,5,29.318,33.9339
72,2015/7/18,0:54:00,02-38.4400N,119-21.5200E,6,29.306,33.9391
73,2015/7/18,0:55:00,02-38.6400N,119-21.5400E,5,29.274,33.9407
74,2015/7/18,0:56:00,02-38.8700N,119-21.5600E,5,29.165,33.9442
75,2015/7/18,0:57:00,02-39.0800N,119-21.5800E,6,29.079,33.943
76,2015/7/18,0:58:00,02-39.2800N,119-21.6100E,6,29.055,33.9624
77,2015/7/18,0:59:00,02-39.4900N,119-21.6300E,7,29.044,33.9993
78,2015/7/18,1:00:00,02-39.6900N,119-21.6600E,7,29.036,34.0314
79,2015/7/18,1:01:00,02-39.9000N,119-21.6900E,7,29.056,34.0514
80,2015/7/18,1:02:00,02-40.1000N,119-21.7100E,7,29.041,34.0397
81,2015/7/18,1:03:00,02-40.3100N,119-21.7400E,7,29.08,34.0342
82,2015/7/18,1:04:00,02-40.5100N,119-21.7700E,7,29.147,34.0219
83,2015/7/18,1:05:00,02-40.7200N,119-21.7900E,7,29.133,33.9696
84,2015/7/18,1:06:00,02-40.9300N,119-21.8200E,7,29.197,33.9611
85,2015/7/18,1:07:00,02-41.1300N,119-21.8500E,7,29.185,33.9473
86,2015/7/18,1:08:00,02-41.3300N,119-21.8700E,7,29.205,33.9395
87,2015/7/18,1:09:00,02-41.5400N,119-21.9000E,8,29.23,33.9355
88,2015/7/18,1:10:00,02-41.7500N,119-21.9300E,7,29.255,33.9344
89,2015/7/18,1:11:00,02-41.9500N,119-21.9600E,7,29.29,33.9432
90,2015/7/18,1:12:00,02-42.1500N,119-21.9900E,7,29.277,33.9469
91,2015/7/18,1:13:00,02-42.3600N,119-22.0100E,7,29.259,33.9492
92,2015/7/18,1:14:00,02-42.5700N,119-22.0400E,8,29.296,33.9506
93,2015/7/18,1:15:00,02-42.7800N,119-22.0800E,8,29.295,33.944
94,2015/7/18,1:16:00,02-42.9900N,119-22.1100E,8,29.28,33.9404
95,2015/7/18,1:17:00,02-43.2100N,119-22.1400E,8,29.271,33.9363
96,2015/7/18,1:18:00,02-43.4200N,119-22.1800E,9,29.3,33.9347
97,2015/7/18,1:19:00,02-43.6200N,119-22.2100E,8,29.311,33.9353
98,2015/7/18,1:20:00,02-43.8300N,119-22.2400E,8,29.301,33.9342
99,2015/7/18,1:21:00,02-44.0400N,119-22.2700E,8,29.263,33.9324
100,2015/7/18,1:22:00,02-44.2500N,119-22.3000E,8,29.264,33.927
101,2015/7/18,1:23:00,02-44.4600N,119-22.3400E,8,29.252,33.9288
102,2015/7/18,1:24:00,02-44.6700N,119-22.3700E,8,29.249,33.9347
103,2015/7/18,1:25:00,02-44.8800N,119-22.4000E,8,29.185,33.9453
104,2015/7/18,1:26:00,02-45.0900N,119-22.4300E,8,29.155,33.9603
105,2015/7/18,1:27:00,02-45.3000N,119-22.4600E,9,29.186,33.997
106,2015/7/18,1:28:00,02-45.5100N,119-22.4900E,8,29.215,33.9822
107,2015/7/18,1:29:00,02-45.7100N,119-22.5300E,8,29.266,33.9684
108,2015/7/18,1:30:00,02-45.9200N,119-22.5600E,9,29.307,33.9519
109,2015/7/18,1:31:00,02-46.1300N,119-22.5900E,9,29.315,33.9399
110,2015/7/18,1:32:00,02-46.3500N,119-22.6300E,8,29.333,33.9319
111,2015/7/18,1:33:00,02-46.5500N,119-22.6600E,8,29.359,33.929
112,2015/7/18,1:34:00,02-46.7600N,119-22.6900E,9,29.396,33.9253
113,2015/7/18,1:35:00,02-46.9700N,119-22.7200E,9,29.455,33.9234
114,2015/7/18,1:36:00,02-47.1800N,119-22.7500E,7,29.504,33.9231
115,2015/7/18,1:37:00,02-47.4000N,119-22.7800E,6,29.48,33.9281
116,2015/7/18,1:38:00,02-47.6300N,119-22.8100E,8,29.464,33.9288
117,2015/7/18,1:39:00,02-47.8400N,119-22.8400E,8,29.444,33.9297
118,2015/7/18,1:40:00,02-48.0500N,119-22.8700E,7,29.491,33.9275
119,2015/7/18,1:41:00,02-48.2700N,119-22.9000E,6,29.517,33.9269
120,2015/7/18,1:42:00,02-48.4800N,119-22.9200E,6,29.394,33.9285
121,2015/7/18,1:43:00,02-48.6900N,119-22.9500E,6,29.329,33.9324
122,2015/7/18,1:44:00,02-48.9100N,119-22.9700E,6,29.233,33.9581
123,2015/7/18,1:45:00,02-49.1200N,119-23.0000E,7,29.205,33.9808
124,2015/7/18,1:46:00,02-49.3300N,119-23.0200E,7,29.122,33.988
125,2015/7/18,1:47:00,02-49.5400N,119-23.0500E,7,29.121,34.0012
126,2015/7/18,1:48:00,02-49.7600N,119-23.0800E,7,29.154,34.012
127,2015/7/18,1:49:00,02-49.9700N,119-23.1100E,7,29.188,33.9971
128,2015/7/18,1:50:00,02-50.1900N,119-23.1400E,7,29.218,33.9906
129,2015/7/18,1:51:00,02-50.4000N,119-23.1700E,7,29.239,33.981
130,2015/7/18,1:52:00,02-50.6200N,119-23.2000E,7,29.25,33.9794
131,2015/7/18,1:53:00,02-50.8400N,119-23.2300E,7,29.249,33.9795
132,2015/7/18,1:54:00,02-51.0500N,119-23.2500E,7,29.191,33.9751
133,2015/7/18,1:55:00,02-51.2600N,119-23.2800E,8,29.25,33.977
134,2015/7/18,1:56:00,02-51.4800N,119-23.3100E,7,29.352,33.9763
135,2015/7/18,1:57:00,02-51.6900N,119-23.3400E,7,29.415,33.9679
136,2015/7/18,1:58:00,02-51.9200N,119-23.3700E,7,29.4,33.9626
137,2015/7/18,1:59:00,02-52.1400N,119-23.4000E,7,29.388,33.9597
138,2015/7/18,2:00:00,02-52.3500N,119-23.4300E,8,29.356,33.963
139,2015/7/18,2:01:00,02-52.5700N,119-23.4600E,7,29.395,33.9619
140,2015/7/18,2:02:00,02-52.7900N,119-23.4900E,7,29.364,33.9605
141,2015/7/18,2:03:00,02-53.0100N,119-23.5200E,8,29.31,33.9582
142,2015/7/18,2:04:00,02-53.2300N,119-23.5500E,7,29.373,33.9587
143,2015/7/18,2:05:00,02-53.4500N,119-23.5800E,5,29.42,33.96
144,2015/7/18,2:06:00,02-53.6700N,119-23.6000E,5,29.374,33.9629
145,2015/7/18,2:07:00,02-53.8900N,119-23.6200E,5,29.329,33.9638
146,2015/7/18,2:08:00,02-54.1000N,119-23.6400E,5,29.336,33.9703
147,2015/7/18,2:09:00,02-54.3300N,119-23.6700E,6,29.355,33.9842
148,2015/7/18,2:10:00,02-54.5400N,119-23.6900E,5,29.355,33.9857
149,2015/7/18,2:11:00,02-54.7700N,119-23.7200E,6,29.366,33.9823
150,2015/7/18,2:12:00,02-54.9900N,119-23.7400E,5,29.358,33.9841
151,2015/7/18,2:13:00,02-55.2100N,119-23.7600E,6,29.406,33.9852
152,2015/7/18,2:14:00,02-55.4300N,119-23.7900E,5,29.413,33.9842
153,2015/7/18,2:15:00,02-55.6500N,119-23.8100E,5,29.351,33.9818
154,2015/7/18,2:16:00,02-55.8700N,119-23.8300E,4,29.339,33.9797
155,2015/7/18,2:17:00,02-56.0900N,119-23.8500E,5,29.354,33.9812
156,2015/7/18,2:18:00,02-56.3100N,119-23.8700E,6,29.362,33.9893
157,2015/7/18,2:19:00,02-56.5500N,119-23.9000E,5,29.369,33.9879
158,2015/7/18,2:20:00,02-56.7700N,119-23.9200E,4,29.31,33.9886
159,2015/7/18,2:21:00,02-56.9900N,119-23.9400E,4,29.193,33.9944
160,2015/7/18,2:22:00,02-57.2200N,119-23.9500E,4,29.23,33.9818
161,2015/7/18,2:23:00,02-57.4400N,119-23.9700E,4,29.247,33.9802
162,2015/7/18,2:24:00,02-57.6600N,119-23.9900E,4,29.309,33.9808
163,2015/7/18,2:25:00,02-57.8900N,119-24.0100E,4,29.305,33.981
164,2015/7/18,2:26:00,02-58.1000N,119-24.0300E,5,29.308,33.9806
165,2015/7/18,2:27:00,02-58.3300N,119-24.0500E,5,29.409,33.9804
166,2015/7/18,2:28:00,02-58.5500N,119-24.0700E,4,29.412,33.9943
167,2015/7/18,2:29:00,02-58.7700N,119-24.0800E,3,29.395,34.004
168,2015/7/18,2:30:00,02-59.0000N,119-24.1000E,4,29.351,34.0042
169,2015/7/18,2:31:00,02-59.2200N,119-24.1200E,4,29.402,33.9942
170,2015/7/18,2:32:00,02-59.4400N,119-24.1400E,4,29.36,33.9947
171,2015/7/18,2:33:00,02-59.6700N,119-24.1500E,3,29.308,33.9924
172,2015/7/18,2:34:00,02-59.8900N,119-24.1600E,4,29.349,33.9756
173,2015/7/18,2:35:00,03-00.1200N,119-24.1800E,4,29.368,33.9828
174,2015/7/18,2:36:00,03-00.3400N,119-24.2000E,4,29.318,33.9906
175,2015/7/18,2:37:00,03-00.5700N,119-24.2200E,4,29.318,33.9815
176,2015/7/18,2:38:00,03-00.8000N,119-24.2300E,3,29.297,33.9769
177,2015/7/18,2:39:00,03-01.0300N,119-24.2400E,2,29.276,33.9732
178,2015/7/18,2:40:00,03-01.2700N,119-24.2600E,4,29.252,33.9694
179,2015/7/18,2:41:00,03-01.5100N,119-24.2700E,4,29.256,33.9671
180,2015/7/18,2:42:00,03-01.7300N,119-24.2900E,3,29.252,33.9653
181,2015/7/18,2:43:00,03-01.9700N,119-24.3100E,3,29.255,33.9634
182,2015/7/18,2:44:00,03-02.2000N,119-24.3200E,3,29.241,33.9609
183,2015/7/18,2:45:00,03-02.4300N,119-24.3300E,3,29.234,33.9634
184,2015/7/18,2:46:00,03-02.6600N,119-24.3500E,3,29.27,33.9714
185,2015/7/18,2:47:00,03-02.8900N,119-24.3600E,3,29.304,33.9713
186,2015/7/18,2:48:00,03-03.1300N,119-24.3700E,3,29.289,33.9641
187,2015/7/18,2:49:00,03-03.3600N,119-24.3900E,3,29.228,33.9625
188,2015/7/18,2:50:00,03-03.5900N,119-24.4000E,3,29.18,33.9677
189,2015/7/18,2:51:00,03-03.8200N,119-24.4200E,3,29.096,33.9731
190,2015/7/18,2:52:00,03-04.0600N,119-24.4300E,3,28.971,33.9894
191,2015/7/18,2:53:00,03-04.2900N,119-24.4500E,3,28.975,34.0266
192,2015/7/18,2:54:00,03-04.5200N,119-24.4600E,3,29.056,34.0334
193,2015/7/18,2:55:00,03-04.7500N,119-24.4800E,3,29.063,34.0133
194,2015/7/18,2:56:00,03-04.9800N,119-24.4900E,4,29.013,34.0043
195,2015/7/18,2:57:00,03-05.2200N,119-24.5100E,4,29.065,34.0145
196,2015/7/18,2:58:00,03-05.4500N,119-24.5300E,3,29.072,34.0063
197,2015/7/18,2:59:00,03-05.6800N,119-24.5400E,3,29.021,34.0021
198,2015/7/18,3:00:00,03-05.9100N,119-24.5600E,4,28.967,34.0143
199,2015/7/18,3:01:00,03-06.1600N,119-24.5800E,4,28.948,34.0306
200,2015/7/18,3:02:00,03-06.3900N,119-24.6000E,5,28.959,34.0523
201,2015/7/18,3:03:00,03-06.6200N,119-24.6200E,4,29.036,34.0771
202,2015/7/18,3:04:00,03-06.8500N,119-24.6400E,5,29.112,34.0293
203,2015/7/18,3:05:00,03-07.0700N,119-24.6600E,5,29.189,34.007
204,2015/7/18,3:06:00,03-07.3000N,119-24.6800E,5,29.215,33.9924
205,2015/7/18,3:07:00,03-07.5300N,119-24.7000E,4,29.219,33.9817
206,2015/7/18,3:08:00,03-07.7600N,119-24.7200E,5,29.219,33.9767
207,2015/7/18,3:09:00,03-07.9800N,119-24.7400E,4,29.174,33.9733
208,2015/7/18,3:10:00,03-08.2100N,119-24.7500E,4,29.119,33.9876
209,2015/7/18,3:11:00,03-08.4400N,119-24.7700E,5,29.12,34.0229
210,2015/7/18,3:12:00,03-08.6600N,119-24.7900E,4,29.182,34.0233
211,2015/7/18,3:13:00,03-08.8800N,119-24.8100E,5,29.166,34.0238
212,2015/7/18,3:14:00,03-09.1000N,119-24.8300E,5,29.192,34.0047
213,2015/7/18,3:15:00,03-09.3400N,119-24.8500E,4,29.2,33.998
214,2015/7/18,3:16:00,03-09.5600N,119-24.8700E,4,29.096,33.9888
215,2015/7/18,3:17:00,03-09.7900N,119-24.8900E,5,29.035,33.9927
216,2015/7/18,3:18:00,03-10.0100N,119-24.9100E,5,29.022,33.9979
217,2015/7/18,3:19:00,03-10.2400N,119-24.9400E,5,29.069,34.0333
218,2015/7/18,3:20:00,03-10.4600N,119-24.9600E,5,29.026,34.0023
219,2015/7/18,3:21:00,03-10.6900N,119-24.9800E,5,29.048,34.0036
220,2015/7/18,3:22:00,03-10.9300N,119-25.0100E,5,29.038,34.0052
221,2015/7/18,3:23:00,03-11.1600N,119-25.0300E,5,29.038,33.9969
222,2015/7/18,3:24:00,03-11.3800N,119-25.0500E,5,29.101,34.0129
223,2015/7/18,3:25:00,03-11.6100N,119-25.0700E,5,29.109,34.0047
224,2015/7/18,3:26:00,03-11.8300N,119-25.0900E,5,29.109,33.9951
225,2015/7/18,3:27:00,03-12.0500N,119-25.1100E,5,29.112,33.9956
226,2015/7/18,3:28:00,03-12.2600N,119-25.1300E,5,29.12,33.996
227,2015/7/18,3:29:00,03-12.4900N,119-25.1500E,5,29.089,33.9876
228,2015/7/18,3:30:00,03-12.7000N,119-25.1700E,5,29.066,33.99
229,2015/7/18,3:31:00,03-12.9100N,119-25.1900E,5,29.07,33.993
230,2015/7/18,3:32:00,03-13.1200N,119-25.2100E,5,29.103,34.0039
231,2015/7/18,3:33:00,03-13.3300N,119-25.2300E,4,29.103,34.003
232,2015/7/18,3:34:00,03-13.5400N,119-25.2500E,5,29.08,33.9927
233,2015/7/18,3:35:00,03-13.7500N,119-25.2700E,5,29.1,34.0342
234,2015/7/18,3:36:00,03-13.9600N,119-25.2900E,5,29.078,34.0254
235,2015/7/18,3:37:00,03-14.1700N,119-25.3100E,5,29.06,34.0504
236,2015/7/18,3:38:00,03-14.3700N,119-25.3300E,6,29.06,34.0922
237,2015/7/18,3:39:00,03-14.5800N,119-25.3500E,6,29.065,34.1045
238,2015/7/18,3:40:00,03-14.7900N,119-25.3800E,6,29.069,34.1069
239,2015/7/18,3:41:00,03-14.9900N,119-25.3900E,5,29.065,34.114
240,2015/7/18,3:42:00,03-15.2000N,119-25.4100E,5,29.072,34.1318
241,2015/7/18,3:43:00,03-15.4200N,119-25.4300E,4,29.071,34.1389
242,2015/7/18,3:44:00,03-15.6200N,119-25.4500E,4,29.072,34.0927
243,2015/7/18,3:45:00,03-15.8300N,119-25.4700E,5,29.073,34.0641
244,2015/7/18,3:46:00,03-16.0400N,119-25.4900E,5,29.075,34.0853
245,2015/7/18,3:47:00,03-16.2400N,119-25.5100E,5,29.093,34.1114
246,2015/7/18,3:48:00,03-16.4500N,119-25.5300E,5,29.134,34.0603
247,2015/7/18,3:49:00,03-16.6500N,119-25.5400E,5,29.127,34.0283
248,2015/7/18,3:50:00,03-16.8500N,119-25.5600E,5,29.134,34.0293
249,2015/7/18,3:51:00,03-17.0600N,119-25.5800E,5,29.148,34.0233
250,2015/7/18,3:52:00,03-17.2600N,119-25.6000E,5,29.148,34.0157
251,2015/7/18,3:53:00,03-17.4700N,119-25.6200E,5,29.169,34.015
252,2015/7/18,3:54:00,03-17.6700N,119-25.6400E,5,29.158,34.0096
253,2015/7/18,3:55:00,03-17.8700N,119-25.6600E,5,29.128,34.007
254,2015/7/18,3:56:00,03-18.0800N,119-25.6800E,6,29.106,34.0144
255,2015/7/18,3:57:00,03-18.2800N,119-25.7000E,5,29.111,34.0158
256,2015/7/18,3:58:00,03-18.4900N,119-25.7200E,5,29.12,34.0102
257,2015/7/18,3:59:00,03-18.6900N,119-25.7400E,5,29.12,34.0086
258,2015/7/18,4:00:00,03-18.9000N,119-25.7600E,6,29.115,34.0159
259,2015/7/18,4:01:00,03-19.1100N,119-25.7900E,6,29.116,34.0283
260,2015/7/18,4:02:00,03-19.3100N,119-25.8100E,6,29.127,34.0375
261,2015/7/18,4:03:00,03-19.5300N,119-25.8300E,6,29.132,34.0283
262,2015/7/18,4:04:00,03-19.7400N,119-25.8500E,6,29.138,34.0268
263,2015/7/18,4:05:00,03-19.9400N,119-25.8800E,6,29.131,34.0223
264,2015/7/18,4:06:00,03-20.1400N,119-25.9000E,6,29.145,34.0256
265,2015/7/18,4:07:00,03-20.3500N,119-25.9200E,6,29.174,34.0224
266,2015/7/18,4:08:00,03-20.5500N,119-25.9500E,6,29.193,34.0083
267,2015/7/18,4:09:00,03-20.7600N,119-25.9700E,6,29.198,34.009
268,2015/7/18,4:10:00,03-20.9600N,119-25.9900E,5,29.202,34.0087
269,2015/7/18,4:11:00,03-21.1600N,119-26.0100E,6,29.201,34.0056
270,2015/7/18,4:12:00,03-21.3600N,119-26.0400E,7,29.19,34.0055
271,2015/7/18,4:13:00,03-21.5600N,119-26.0600E,6,29.175,34.0054
272,2015/7/18,4:14:00,03-21.7700N,119-26.0900E,7,29.178,34.0067
273,2015/7/18,4:15:00,03-21.9700N,119-26.1100E,7,29.169,34.0069
274,2015/7/18,4:16:00,03-22.1700N,119-26.1400E,7,29.172,34.0039
275,2015/7/18,4:17:00,03-22.3700N,119-26.1600E,7,29.183,34.0006
276,2015/7/18,4:18:00,03-22.5700N,119-26.1900E,7,29.19,33.9969
277,2015/7/18,4:19:00,03-22.7700N,119-26.2200E,7,29.191,33.9943
278,2015/7/18,4:20:00,03-22.9800N,119-26.2400E,7,29.174,33.9927
279,2015/7/18,4:21:00,03-23.1800N,119-26.2700E,7,29.161,33.9969
280,2015/7/18,4:22:00,03-23.3800N,119-26.2900E,6,29.181,34.0077
281,2015/7/18,4:23:00,03-23.5800N,119-26.3100E,6,29.185,34.0089
282,2015/7/18,4:24:00,03-23.7900N,119-26.3400E,6,29.187,34.0062
283,2015/7/18,4:25:00,03-24.0000N,119-26.3600E,6,29.205,34.006
284,2015/7/18,4:26:00,03-24.1900N,119-26.3900E,7,29.223,34.003
285,2015/7/18,4:27:00,03-24.4000N,119-26.4100E,7,29.221,33.9981
286,2015/7/18,4:28:00,03-24.6000N,119-26.4400E,7,29.21,33.9949
287,2015/7/18,4:29:00,03-24.8000N,119-26.4700E,6,29.218,33.9948
288,2015/7/18,4:30:00,03-25.0000N,119-26.4900E,7,29.201,34.0021
289,2015/7/18,4:31:00,03-25.2100N,119-26.5200E,7,29.204,34.0048
290,2015/7/18,4:32:00,03-25.4100N,119-26.5400E,7,29.201,34.0042
291,2015/7/18,4:33:00,03-25.6100N,119-26.5700E,6,29.197,34.0068
292,2015/7/18,4:34:00,03-25.8100N,119-26.5900E,7,29.194,34.0094
293,2015/7/18,4:35:00,03-26.0200N,119-26.6200E,7,29.208,34.0133
294,2015/7/18,4:36:00,03-26.2300N,119-26.6500E,7,29.216,34.0143
295,2015/7/18,4:37:00,03-26.4300N,119-26.6700E,7,29.209,34.0163
296,2015/7/18,4:38:00,03-26.6300N,119-26.7000E,7,29.205,34.0167
297,2015/7/18,4:39:00,03-26.8300N,119-26.7300E,7,29.215,34.0274
298,2015/7/18,4:40:00,03-27.0400N,119-26.7600E,7,29.228,34.032
299,2015/7/18,4:41:00,03-27.2400N,119-26.7800E,7,29.234,34.0295
300,2015/7/18,4:42:00,03-27.4500N,119-26.8100E,7,29.25,34.0304
301,2015/7/18,4:43:00,03-27.6500N,119-26.8400E,7,29.26,34.0285
302,2015/7/18,4:44:00,03-27.8500N,119-26.8600E,6,29.259,34.0328
303,2015/7/18,4:45:00,03-28.0800N,119-26.8900E,7,29.264,34.031
304,2015/7/18,4:46:00,03-28.2800N,119-26.9200E,7,29.276,34.0378
305,2015/7/18,4:47:00,03-28.4800N,119-26.9500E,7,29.292,34.0459
306,2015/7/18,4:48:00,03-28.6900N,119-26.9700E,7,29.31,34.0428
307,2015/7/18,4:49:00,03-28.9000N,119-27.0000E,7,29.322,34.0411
308,2015/7/18,4:50:00,03-29.1000N,119-27.0300E,8,29.329,34.0372
309,2015/7/18,4:51:00,03-29.3000N,119-27.0600E,8,29.345,34.0397
310,2015/7/18,4:52:00,03-29.5000N,119-27.0900E,8,29.365,34.0431
311,2015/7/18,4:53:00,03-29.7100N,119-27.1200E,8,29.372,34.0418
312,2015/7/18,4:54:00,03-29.9100N,119-27.1500E,7,29.398,34.0427
313,2015/7/18,4:55:00,03-30.1100N,119-27.1800E,7,29.374,34.0408
314,2015/7/18,4:56:00,03-30.3200N,119-27.2000E,7,29.338,34.0445
315,2015/7/18,4:57:00,03-30.5100N,119-27.2300E,7,29.374,34.0613
316,2015/7/18,4:58:00,03-30.7200N,119-27.2600E,7,29.365,34.0593
317,2015/7/18,4:59:00,03-30.9200N,119-27.2800E,8,29.318,34.0567
318,2015/7/18,5:00:00,03-31.1300N,119-27.3200E,8,29.297,34.0623
319,2015/7/18,5:01:00,03-31.3200N,119-27.3400E,7,29.324,34.0668
320,2015/7/18,5:02:00,03-31.5300N,119-27.3600E,6,29.3,34.0624
321,2015/7/18,5:03:00,03-31.7300N,119-27.3900E,6,29.291,34.0625
322,2015/7/18,5:04:00,03-31.9300N,119-27.4100E,7,29.294,34.0635
323,2015/7/18,5:05:00,03-32.1400N,119-27.4400E,7,29.312,34.0649
324,2015/7/18,5:06:00,03-32.3600N,119-27.4700E,7,29.478,34.0653
325,2015/7/18,5:07:00,03-32.5600N,119-27.5000E,8,29.257,34.0658
326,2015/7/18,5:08:00,03-32.7600N,119-27.5300E,7,29.264,34.0967
327,2015/7/18,5:09:00,03-32.9600N,119-27.5500E,6,29.322,34.1062
328,2015/7/18,5:10:00,03-33.1600N,119-27.5800E,7,29.325,34.0918
329,2015/7/18,5:11:00,03-33.3700N,119-27.6000E,7,29.355,34.0888
330,2015/7/18,5:12:00,03-33.5700N,119-27.6300E,7,29.273,34.0987
331,2015/7/18,5:13:00,03-33.7700N,119-27.6600E,7,29.179,34.1121
332,2015/7/18,5:14:00,03-33.9700N,119-27.6800E,7,29.18,34.1642
333,2015/7/18,5:15:00,03-34.1700N,119-27.7100E,7,29.201,34.1818
334,2015/7/18,5:16:00,03-34.3700N,119-27.7400E,7,29.239,34.1684
335,2015/7/18,5:17:00,03-34.5700N,119-27.7700E,7,29.286,34.1601
336,2015/7/18,5:18:00,03-34.7700N,119-27.7900E,7,29.321,34.1469
337,2015/7/18,5:19:00,03-34.9700N,119-27.8100E,7,29.343,34.131
338,2015/7/18,5:20:00,03-35.1700N,119-27.8400E,7,29.337,34.1195
339,2015/7/18,5:21:00,03-35.3600N,119-27.8700E,7,29.381,34.124
340,2015/7/18,5:22:00,03-35.5700N,119-27.9000E,8,29.418,34.1163
341,2015/7/18,5:23:00,03-35.7700N,119-27.9200E,8,29.434,34.1079
342,2015/7/18,5:24:00,03-35.9700N,119-27.9500E,7,29.43,34.108
343,2015/7/18,5:25:00,03-36.1700N,119-27.9800E,7,29.437,34.1055
344,2015/7/18,5:26:00,03-36.3700N,119-28.0100E,7,29.421,34.0999
345,2015/7/18,5:27:00,03-36.5900N,119-28.0300E,7,29.423,34.0989
346,2015/7/18,5:28:00,03-36.8000N,119-28.0600E,7,29.424,34.0984
347,2015/7/18,5:29:00,03-37.0000N,119-28.0900E,8,29.274,34.1051
348,2015/7/18,5:30:00,03-37.2100N,119-28.1200E,8,29.24,34.1317
349,2015/7/18,5:31:00,03-37.4200N,119-28.1500E,8,29.214,34.1471
350,2015/7/18,5:32:00,03-37.6200N,119-28.1800E,7,29.205,34.1499
351,2015/7/18,5:33:00,03-37.8300N,119-28.2100E,7,29.224,34.1636
352,2015/7/18,5:34:00,03-38.0300N,119-28.2300E,7,29.217,34.1556
353,2015/7/18,5:35:00,03-38.2400N,119-28.2600E,7,29.235,34.1586
354,2015/7/18,5:36:00,03-38.4500N,119-28.2900E,7,29.245,34.1565
355,2015/7/18,5:37:00,03-38.6600N,119-28.3200E,8,29.242,34.1476
356,2015/7/18,5:38:00,03-38.8600N,119-28.3500E,7,29.252,34.1527
357,2015/7/18,5:39:00,03-39.0800N,119-28.3700E,7,29.27,34.154
358,2015/7/18,5:40:00,03-39.2800N,119-28.4000E,7,29.269,34.1554
359,2015/7/18,5:41:00,03-39.4900N,119-28.4300E,7,29.266,34.1551
360,2015/7/18,5:42:00,03-39.7000N,119-28.4600E,7,29.311,34.1521
361,2015/7/18,5:43:00,03-39.9100N,119-28.4900E,8,29.293,34.1521
362,2015/7/18,5:44:00,03-40.1200N,119-28.5200E,8,29.274,34.1502
363,2015/7/18,5:45:00,03-40.3300N,119-28.5500E,7,29.331,34.1449
364,2015/7/18,5:46:00,03-40.5300N,119-28.5800E,8,29.275,34.1491
365,2015/7/18,5:47:00,03-40.7500N,119-28.6100E,8,29.241,34.1472
366,2015/7/18,5:48:00,03-40.9700N,119-28.6400E,7,29.227,34.1453
367,2015/7/18,5:49:00,03-41.1800N,119-28.6700E,7,29.219,34.139
368,2015/7/18,5:50:00,03-41.3800N,119-28.7000E,8,29.223,34.1374
369,2015/7/18,5:51:00,03-41.5900N,119-28.7300E,8,29.222,34.1421
370,2015/7/18,5:52:00,03-41.7900N,119-28.7600E,8,29.213,34.1414
371,2015/7/18,5:53:00,03-42.0100N,119-28.7900E,8,29.207,34.1387
372,2015/7/18,5:54:00,03-42.2100N,119-28.8200E,8,29.205,34.1367
373,2015/7/18,5:55:00,03-42.4200N,119-28.8500E,8,29.201,34.1353
374,2015/7/18,5:56:00,03-42.6300N,119-28.8800E,8,29.196,34.1322
375,2015/7/18,5:57:00,03-42.8400N,119-28.9100E,8,29.202,34.1309
376,2015/7/18,5:58:00,03-43.0400N,119-28.9400E,7,29.223,34.132
377,2015/7/18,5:59:00,03-43.2500N,119-28.9600E,7,29.246,34.1307
378,2015/7/18,6:00:00,03-43.4500N,119-28.9900E,8,29.231,34.1387
379,2015/7/18,6:01:00,03-43.6500N,119-29.0200E,8,29.231,34.146
380,2015/7/18,6:02:00,03-43.8600N,119-29.0500E,8,29.238,34.1485
381,2015/7/18,6:03:00,03-44.0600N,119-29.0800E,7,29.253,34.1478
382,2015/7/18,6:04:00,03-44.2600N,119-29.1100E,8,29.251,34.1473
383,2015/7/18,6:05:00,03-44.4700N,119-29.1400E,7,29.254,34.1463
384,2015/7/18,6:06:00,03-44.6700N,119-29.1600E,7,29.265,34.1468
385,2015/7/18,6:07:00,03-44.8700N,119-29.1900E,7,29.278,34.1476
386,2015/7/18,6:08:00,03-45.0800N,119-29.2200E,7,29.301,34.1477
387,2015/7/18,6:09:00,03-45.3000N,119-29.2500E,7,29.334,34.147
388,2015/7/18,6:10:00,03-45.5000N,119-29.2800E,7,29.342,34.1451
389,2015/7/18,6:11:00,03-45.7100N,119-29.3000E,8,29.346,34.1436
390,2015/7/18,6:12:00,03-45.9100N,119-29.3300E,7,29.36,34.1463